Zurück zum Katalog

DELTA 1 DEB

AktivSSO
NORAD 12538·DEBRIS·🇺🇸 United States

Gestartet Jul 29, 1976 von Vandenberg Space Force Base

Loading…

Nächste Überflüge (nächste 24 Stunden)

TLE

AktuellSource: Space-Track

Epoche: Sep 13, 2026, 04:53 UTC

1 12538U 76077DT  26256.20372580 -.00000009  00000-0  36959-3 0  9999
2 12538 102.7788 350.0640 0198374 116.5921 273.0274 12.05753909 43046

Verfolge DELTA 1 DEB in Echtzeit mit AllMySat

Download on the App Store